Location: Unspecified
(0.0000°N, 0.0000°E)
Time: 13:32:21
(UTC+00:00)

A-11 Canister half - All Passes

Search period start: 21 February 2019 00:00
Search period end: 03 March 2019 00:00
Orbit: 1516 x 1684 km, 47.2° (Epoch: 20 February)

Date Brightness Start Highest point End Pass type
(mag) Time Alt. Az. Time Alt. Az. Time Alt. Az.
21 Feb - 02:24:38 10° N 02:30:06 17° NE 02:35:31 10° E visible
21 Feb - 04:25:48 10° NW 04:35:03 89° WSW 04:44:24 10° SE visible
21 Feb - 06:34:43 10° W 06:40:06 17° SW 06:45:33 10° S daylight
21 Feb - 15:11:57 10° SSW 15:21:20 42° SE 15:30:39 10° ENE daylight
21 Feb - 17:16:44 10° WSW 17:26:13 45° NW 17:35:38 10° NNE daylight
22 Feb - 02:02:18 10° NNE 02:07:07 15° NE 02:11:55 10° ENE visible
22 Feb - 04:02:54 10° NW 04:12:10 84° NE 04:21:30 10° SE visible
22 Feb - 06:11:14 10° W 06:17:07 18° SW 06:23:07 10° S daylight
22 Feb - 14:49:12 10° SSW 14:58:22 39° SE 15:07:30 10° ENE daylight
22 Feb - 16:53:37 10° WSW 17:03:16 49° NW 17:12:51 10° NNE daylight
23 Feb - 01:40:06 10° NNE 01:44:09 13° NE 01:48:10 10° ENE visible
23 Feb - 03:40:02 10° NW 03:49:17 78° NE 03:58:34 10° SE visible
23 Feb - 05:47:49 10° W 05:54:10 20° SW 06:00:38 10° S visible
23 Feb - 14:26:28 10° SSW 14:35:24 35° SE 14:44:20 10° ENE daylight
23 Feb - 16:30:32 10° SW 16:40:19 53° NW 16:50:03 10° NNE daylight
24 Feb - 01:18:07 10° NNE 01:21:09 12° NE 01:24:10 10° ENE visible
24 Feb - 03:17:11 10° NNW 03:26:24 72° NE 03:35:38 10° SE visible
24 Feb - 05:24:28 10° W 05:31:13 23° SW 05:38:04 10° S visible
24 Feb - 14:03:45 10° S 14:12:26 32° SE 14:21:07 10° ENE daylight
24 Feb - 16:07:28 10° SW 16:17:22 58° NW 16:27:14 10° NNE daylight
25 Feb - 00:56:52 10° NE 00:58:09 10° NE 00:59:25 10° NE night (unlit)
25 Feb - 02:54:20 10° NNW 03:03:31 66° NE 03:12:40 10° SE visible
25 Feb - 05:01:09 10° W 05:08:17 25° SW 05:15:30 10° S visible
25 Feb - 13:41:05 10° S 13:49:28 30° SE 13:57:51 10° ENE daylight
25 Feb - 15:44:27 10° SW 15:54:25 63° NW 16:04:23 10° NNE daylight
25 Feb - 17:58:03 10° NW 18:00:04 11° NW 18:02:05 10° NNW daylight
26 Feb - 02:31:30 10° NNW 02:40:38 60° NE 02:49:41 10° SE visible
26 Feb - 04:37:54 10° WNW 04:45:21 27° SW 04:52:53 10° S visible
26 Feb - 13:18:25 10° S 13:26:30 27° SE 13:34:34 10° ENE daylight
26 Feb - 15:21:27 10° SW 15:31:29 68° NW 15:41:32 10° NNE daylight
26 Feb - 17:33:26 10° WNW 17:37:01 12° NW 17:40:37 10° NNW daylight
27 Feb - 02:08:42 10° NNW 02:17:44 55° NE 02:26:41 10° SE visible
27 Feb - 04:14:41 10° WNW 04:22:25 30° SW 04:30:14 10° S visible
27 Feb - 12:55:49 10° S 13:03:31 25° SE 13:11:13 10° E daylight
27 Feb - 14:58:27 10° SW 15:08:32 73° NW 15:18:39 10° NNE daylight
27 Feb - 17:09:23 10° WNW 17:13:59 14° NW 17:18:36 10° NNW daylight
28 Feb - 01:45:54 10° NNW 01:54:51 50° NE 02:03:40 10° ESE visible
28 Feb - 03:51:31 10° WNW 03:59:30 33° SW 04:07:34 10° SSE visible
28 Feb - 12:33:15 10° S 12:40:32 22° SE 12:47:50 10° E daylight
28 Feb - 14:35:29 10° SW 14:45:36 79° NW 14:55:46 10° NE daylight
28 Feb - 16:45:33 10° WNW 16:50:57 15° NW 16:56:22 10° NNW daylight
01 Mar - 01:23:07 10° NNW 01:31:57 46° NE 01:40:38 10° ESE visible
01 Mar - 03:28:21 10° WNW 03:36:35 36° SW 03:44:52 10° SSE visible
01 Mar - 12:10:43 10° S 12:17:32 20° SE 12:24:23 10° E daylight
01 Mar - 14:12:32 10° SW 14:22:40 85° NW 14:32:51 10° NE daylight
01 Mar - 16:21:54 10° W 16:27:57 17° NW 16:34:00 10° N daylight
02 Mar - 01:00:22 10° NNW 01:09:02 42° NE 01:17:35 10° ESE visible
02 Mar - 03:05:14 10° WNW 03:13:41 40° SW 03:22:09 10° SSE visible
02 Mar - 11:48:15 10° S 11:54:32 18° SE 12:00:51 10° E daylight
02 Mar - 13:49:36 10° SW 13:59:42 89° SE 14:09:55 10° NE daylight
02 Mar - 15:58:20 10° W 16:04:56 19° NW 16:11:33 10° N daylight
